Time,TemperatureF,DewpointF,PressureIn,WindDirection,WindDirectionDegrees,WindSpeedMPH,WindSpeedGustMPH,Humidity,HourlyPrecipIn,Conditions,Clouds,dailyrainin,SoftwareType,DateUTC
2013-01-16 00:02:00,23.0,10.0,-100.00,South,190,11.0,19.0,55,0.00,,,-99.99,,2013-01-16 06:02:00,
2013-01-16 00:12:00,23.0,10.0,-100.00,SSW,200,12.0,17.0,55,0.00,,,-99.99,,2013-01-16 06:12:00,
2013-01-16 00:22:00,23.0,9.0,-100.00,SSW,195,12.0,16.0,56,0.00,,,-99.99,,2013-01-16 06:22:00,
2013-01-16 00:32:00,22.0,9.0,-100.00,SSW,195,11.0,16.0,57,0.00,,,-99.99,,2013-01-16 06:32:00,
2013-01-16 00:42:00,22.0,9.0,-100.00,SSW,195,11.0,16.0,57,0.00,,,-99.99,,2013-01-16 06:42:00,
2013-01-16 00:52:00,22.0,9.0,-100.00,South,185,11.0,14.0,58,0.00,,,-99.99,,2013-01-16 06:52:00,
2013-01-16 01:02:00,22.0,9.0,-100.00,South,185,11.0,14.0,58,0.00,,,-99.99,,2013-01-16 07:02:00,
2013-01-16 01:12:00,22.0,9.0,-100.00,South,190,11.0,14.0,58,0.00,,,-99.99,,2013-01-16 07:12:00,
2013-01-16 01:22:00,22.0,9.0,-100.00,SSW,195,10.0,16.0,58,0.00,,,-99.99,,2013-01-16 07:22:00,
2013-01-16 01:32:00,21.0,9.0,-100.00,South,185,11.0,14.0,59,0.00,,,-99.99,,2013-01-16 07:32:00,
2013-01-16 01:42:00,21.0,9.0,-100.00,South,185,11.0,14.0,59,0.00,,,-99.99,,2013-01-16 07:42:00,
2013-01-16 01:52:00,21.0,10.0,-100.00,SSW,195,11.0,15.0,60,0.00,,,-99.99,,2013-01-16 07:52:00,
2013-01-16 02:02:00,21.0,10.0,-100.00,SSW,195,11.0,15.0,60,0.00,,,-99.99,,2013-01-16 08:02:00,
2013-01-16 02:12:00,21.0,10.0,-100.00,SSW,200,10.0,13.0,60,0.00,,,-99.99,,2013-01-16 08:12:00,
2013-01-16 02:22:00,21.0,10.0,-100.00,SSW,195,9.0,12.0,61,0.00,,,-99.99,,2013-01-16 08:22:00,
2013-01-16 02:32:00,21.0,10.0,-100.00,SSW,195,11.0,14.0,62,0.00,,,-99.99,,2013-01-16 08:32:00,
2013-01-16 02:42:00,21.0,10.0,-100.00,SSW,195,11.0,14.0,62,0.00,,,-99.99,,2013-01-16 08:42:00,
2013-01-16 02:52:00,21.0,10.0,-100.00,South,180,10.0,14.0,62,0.00,,,-99.99,,2013-01-16 08:52:00,
2013-01-16 03:02:00,21.0,10.0,-100.00,South,180,10.0,14.0,62,0.00,,,-99.99,,2013-01-16 09:02:00,
2013-01-16 03:11:00,21.0,11.0,-100.00,South,185,11.0,14.0,63,0.00,,,-99.99,,2013-01-16 09:11:00,
2013-01-16 03:22:00,21.0,11.0,-100.00,South,190,11.0,14.0,63,0.00,,,-99.99,,2013-01-16 09:22:00,
2013-01-16 03:32:00,21.0,11.0,-100.00,SSW,200,11.0,14.0,64,0.00,,,-99.99,,2013-01-16 09:32:00,
2013-01-16 03:42:00,21.0,11.0,-100.00,SSW,200,11.0,14.0,64,0.00,,,-99.99,,2013-01-16 09:42:00,
2013-01-16 03:52:00,21.0,11.0,-100.00,SSW,195,11.0,14.0,65,0.00,,,-99.99,,2013-01-16 09:52:00,
2013-01-16 04:02:00,21.0,11.0,-100.00,SSW,195,11.0,14.0,65,0.00,,,-99.99,,2013-01-16 10:02:00,
2013-01-16 04:12:00,21.0,11.0,-100.00,South,190,11.0,14.0,65,0.00,,,-99.99,,2013-01-16 10:12:00,
2013-01-16 04:22:00,21.0,12.0,-100.00,SSW,195,12.0,16.0,66,0.00,,,-99.99,,2013-01-16 10:22:00,
2013-01-16 04:32:00,21.0,12.0,-100.00,SSW,195,12.0,14.0,67,0.00,,,-99.99,,2013-01-16 10:32:00,
2013-01-16 04:42:00,21.0,12.0,-100.00,SSW,195,12.0,14.0,67,0.00,,,-99.99,,2013-01-16 10:42:00,
2013-01-16 04:52:00,21.0,12.0,-100.00,SSW,200,11.0,14.0,67,0.00,,,-99.99,,2013-01-16 10:52:00,
2013-01-16 05:02:00,21.0,12.0,-100.00,SSW,200,11.0,14.0,67,0.00,,,-99.99,,2013-01-16 11:02:00,
2013-01-16 05:12:00,22.0,13.0,-100.00,SSW,210,13.0,16.0,68,0.00,,,-99.99,,2013-01-16 11:12:00,
2013-01-16 05:22:00,22.0,13.0,-100.00,SSW,205,13.0,16.0,68,0.00,,,-99.99,,2013-01-16 11:22:00,
2013-01-16 05:32:00,23.0,14.0,-100.00,SSW,210,14.0,19.0,68,0.00,,,-99.99,,2013-01-16 11:32:00,
2013-01-16 05:42:00,23.0,14.0,-100.00,SSW,210,14.0,19.0,68,0.00,,,-99.99,,2013-01-16 11:42:00,
2013-01-16 05:52:00,23.0,14.0,-100.00,SSW,205,13.0,18.0,68,0.00,,,-99.99,,2013-01-16 11:52:00,
2013-01-16 06:03:00,23.0,14.0,-100.00,SSW,205,13.0,18.0,68,0.00,,,-99.99,,2013-01-16 12:03:00,
2013-01-16 06:12:00,23.0,14.0,-100.00,SSW,205,12.0,16.0,68,0.00,,,-99.99,,2013-01-16 12:12:00,
2013-01-16 06:22:00,23.0,15.0,-100.00,SW,215,12.0,16.0,68,0.00,,,-99.99,,2013-01-16 12:22:00,
2013-01-16 06:33:00,24.0,16.0,-100.00,SSW,205,14.0,17.0,68,0.00,,,-99.99,,2013-01-16 12:33:00,
2013-01-16 06:43:00,24.0,16.0,-100.00,SSW,205,14.0,17.0,68,0.00,,,-99.99,,2013-01-16 12:43:00,
2013-01-16 06:52:00,26.0,16.0,-100.00,SSW,210,15.0,21.0,67,0.00,,,-99.99,,2013-01-16 12:52:00,
2013-01-16 07:03:00,26.0,16.0,-100.00,SSW,210,15.0,21.0,67,0.00,,,-99.99,,2013-01-16 13:03:00,
2013-01-16 07:12:00,26.0,17.0,-100.00,SW,220,13.0,19.0,66,0.00,,,-99.99,,2013-01-16 13:12:00,
2013-01-16 07:22:00,26.0,17.0,-100.00,SSW,210,14.0,19.0,66,0.00,,,-99.99,,2013-01-16 13:22:00,
2013-01-16 07:33:00,27.0,17.0,-100.00,SW,215,12.0,17.0,65,0.00,,,-99.99,,2013-01-16 13:33:00,
2013-01-16 07:42:00,27.0,17.0,-100.00,SW,215,12.0,17.0,65,0.00,,,-99.99,,2013-01-16 13:42:00,
2013-01-16 07:52:00,27.0,17.0,-100.00,SW,215,14.0,17.0,64,0.00,,,-99.99,,2013-01-16 13:52:00,
2013-01-16 08:03:00,27.0,17.0,-100.00,SW,215,14.0,17.0,64,0.00,,,-99.99,,2013-01-16 14:03:00,
2013-01-16 08:12:00,28.0,17.0,-100.00,SW,225,14.0,17.0,63,0.00,,,-99.99,,2013-01-16 14:12:00,
2013-01-16 08:22:00,28.0,17.0,-100.00,SW,225,14.0,19.0,62,0.00,,,-99.99,,2013-01-16 14:22:00,
2013-01-16 08:33:00,29.0,17.0,-100.00,WSW,250,12.0,19.0,62,0.00,,,-99.99,,2013-01-16 14:33:00,
2013-01-16 08:42:00,29.0,17.0,-100.00,WSW,250,12.0,19.0,62,0.00,,,-99.99,,2013-01-16 14:42:00,
2013-01-16 08:53:00,29.0,17.0,-100.00,WSW,250,11.0,17.0,62,0.00,,,-99.99,,2013-01-16 14:53:00,
2013-01-16 09:03:00,29.0,17.0,-100.00,WSW,250,11.0,17.0,62,0.00,,,-99.99,,2013-01-16 15:03:00,
2013-01-16 09:12:00,29.0,17.0,-100.00,WSW,250,11.0,17.0,62,0.00,,,-99.99,,2013-01-16 15:12:00,
2013-01-16 09:22:00,29.0,17.0,-100.00,WSW,250,11.0,17.0,62,0.00,,,-99.99,,2013-01-16 15:22:00,
2013-01-16 09:33:00,30.0,19.0,-100.00,SW,230,14.0,17.0,63,0.00,,,-99.99,,2013-01-16 15:33:00,
2013-01-16 09:43:00,30.0,19.0,-100.00,SW,230,14.0,17.0,63,0.00,,,-99.99,,2013-01-16 15:43:00,
2013-01-16 09:53:00,30.0,20.0,-100.00,WSW,255,12.0,16.0,63,0.00,,,-99.99,,2013-01-16 15:53:00,
2013-01-16 10:03:00,30.0,20.0,-100.00,WSW,255,12.0,16.0,63,0.00,,,-99.99,,2013-01-16 16:03:00,
2013-01-16 10:12:00,31.0,20.0,-100.00,SW,235,11.0,16.0,63,0.00,,,-99.99,,2013-01-16 16:12:00,
2013-01-16 10:22:00,33.0,22.0,-100.00,WSW,240,11.0,15.0,63,0.00,,,-99.99,,2013-01-16 16:22:00,
2013-01-16 10:33:00,34.0,23.0,-100.00,SW,235,14.0,18.0,62,0.00,,,-99.99,,2013-01-16 16:33:00,
2013-01-16 10:42:00,34.0,23.0,-100.00,SW,235,14.0,18.0,62,0.00,,,-99.99,,2013-01-16 16:42:00,
2013-01-16 10:52:00,35.0,23.0,-100.00,WSW,255,16.0,19.0,62,0.00,,,-99.99,,2013-01-16 16:52:00,
2013-01-16 11:03:00,35.0,23.0,-100.00,WSW,255,16.0,19.0,62,0.00,,,-99.99,,2013-01-16 17:03:00,
2013-01-16 11:12:00,36.0,24.0,-100.00,WSW,255,14.0,18.0,62,0.00,,,-99.99,,2013-01-16 17:12:00,
2013-01-16 11:22:00,37.0,25.0,-100.00,West,280,12.0,18.0,60,0.00,,,-99.99,,2013-01-16 17:22:00,
2013-01-16 11:33:00,37.0,26.0,-100.00,West,270,16.0,20.0,63,0.06,,,-99.99,,2013-01-16 17:33:00,
2013-01-16 11:43:00,37.0,26.0,-100.00,West,270,16.0,20.0,63,0.06,,,-99.99,,2013-01-16 17:43:00,
2013-01-16 11:53:00,37.0,26.0,-100.00,West,260,14.0,18.0,64,0.00,,,-99.99,,2013-01-16 17:53:00,
2013-01-16 12:03:00,37.0,26.0,-100.00,West,260,14.0,18.0,64,0.00,,,-99.99,,2013-01-16 18:03:00,
2013-01-16 12:12:00,38.0,27.0,-100.00,WSW,250,12.0,16.0,64,0.00,,,-99.99,,2013-01-16 18:12:00,
2013-01-16 12:23:00,39.0,28.0,-100.00,West,260,12.0,19.0,64,0.00,,,-99.99,,2013-01-16 18:23:00,
2013-01-16 12:33:00,41.0,29.0,-100.00,West,265,13.0,19.0,62,0.00,,,-99.99,,2013-01-16 18:33:00,
2013-01-16 12:42:00,41.0,29.0,-100.00,West,265,13.0,19.0,62,0.00,,,-99.99,,2013-01-16 18:42:00,
2013-01-16 12:52:00,42.0,30.0,-100.00,WSW,250,15.0,19.0,61,0.00,,,-99.99,,2013-01-16 18:52:00,
2013-01-16 13:03:00,42.0,30.0,-100.00,WSW,250,15.0,19.0,61,0.00,,,-99.99,,2013-01-16 19:03:00,
2013-01-16 13:12:00,43.0,30.0,-100.00,West,265,12.0,19.0,61,0.00,,,-99.99,,2013-01-16 19:12:00,
2013-01-16 13:23:00,43.0,31.0,-100.00,West,265,15.0,19.0,60,0.00,,,-99.99,,2013-01-16 19:23:00,
2013-01-16 13:33:00,44.0,31.0,-100.00,West,265,14.0,20.0,60,0.00,,,-99.99,,2013-01-16 19:33:00,
2013-01-16 13:42:00,44.0,31.0,-100.00,West,265,14.0,20.0,60,0.00,,,-99.99,,2013-01-16 19:42:00,
2013-01-16 13:52:00,45.0,32.0,-100.00,West,270,12.0,19.0,59,0.00,,,-99.99,,2013-01-16 19:52:00,
2013-01-16 14:03:00,45.0,32.0,-100.00,West,270,12.0,19.0,59,0.00,,,-99.99,,2013-01-16 20:03:00,
2013-01-16 14:12:00,46.0,32.0,-100.00,West,280,9.0,16.0,58,0.00,,,-99.99,,2013-01-16 20:12:00,
2013-01-16 14:23:00,47.0,32.0,-100.00,West,270,12.0,16.0,57,0.00,,,-99.99,,2013-01-16 20:23:00,
2013-01-16 14:33:00,47.0,32.0,-100.00,West,260,15.0,18.0,57,0.00,,,-99.99,,2013-01-16 20:33:00,
2013-01-16 14:42:00,47.0,32.0,-100.00,West,260,15.0,18.0,57,0.00,,,-99.99,,2013-01-16 20:42:00,
2013-01-16 14:53:00,47.0,32.0,-100.00,West,270,15.0,19.0,56,0.00,,,-99.99,,2013-01-16 20:53:00,
2013-01-16 15:03:00,47.0,32.0,-100.00,West,270,15.0,19.0,56,0.00,,,-99.99,,2013-01-16 21:03:00,
2013-01-16 15:12:00,47.0,33.0,-100.00,WSW,255,12.0,17.0,55,0.00,,,-99.99,,2013-01-16 21:12:00,
2013-01-16 15:22:00,48.0,33.0,-100.00,WSW,255,12.0,18.0,55,0.00,,,-99.99,,2013-01-16 21:22:00,
2013-01-16 15:33:00,48.0,33.0,-100.00,West,260,12.0,17.0,55,0.00,,,-99.99,,2013-01-16 21:33:00,
2013-01-16 15:43:00,48.0,33.0,-100.00,West,260,12.0,17.0,55,0.00,,,-99.99,,2013-01-16 21:43:00,
2013-01-16 15:52:00,48.0,32.0,-100.00,West,270,11.0,15.0,54,0.00,,,-99.99,,2013-01-16 21:52:00,
2013-01-16 16:02:00,48.0,32.0,-100.00,West,270,11.0,15.0,54,0.00,,,-99.99,,2013-01-16 22:02:00,
2013-01-16 16:12:00,48.0,32.0,-100.00,West,265,9.0,14.0,54,0.00,,,-99.99,,2013-01-16 22:12:00,
2013-01-16 16:22:00,47.0,32.0,-100.00,West,275,14.0,18.0,54,0.00,,,-99.99,,2013-01-16 22:22:00,
2013-01-16 16:33:00,47.0,32.0,-100.00,West,265,10.0,15.0,56,0.00,,,-99.99,,2013-01-16 22:33:00,
2013-01-16 16:43:00,47.0,32.0,-100.00,West,265,10.0,15.0,56,0.00,,,-99.99,,2013-01-16 22:43:00,
2013-01-16 16:52:00,47.0,33.0,-100.00,WNW,285,9.0,14.0,57,0.00,,,-99.99,,2013-01-16 22:52:00,
2013-01-16 17:02:00,47.0,33.0,-100.00,WNW,285,9.0,14.0,57,0.00,,,-99.99,,2013-01-16 23:02:00,
2013-01-16 17:12:00,47.0,33.0,-100.00,West,280,7.0,13.0,58,0.00,,,-99.99,,2013-01-16 23:12:00,
2013-01-16 17:22:00,46.0,33.0,-100.00,WNW,285,8.0,12.0,58,0.00,,,-99.99,,2013-01-16 23:22:00,
2013-01-16 17:32:00,45.0,32.0,-100.00,WNW,290,7.0,12.0,60,0.00,,,-99.99,,2013-01-16 23:32:00,
2013-01-16 17:42:00,45.0,32.0,-100.00,WNW,290,7.0,12.0,60,0.00,,,-99.99,,2013-01-16 23:42:00,
2013-01-16 17:52:00,44.0,32.0,-100.00,WNW,285,7.0,9.0,63,0.00,,,-99.99,,2013-01-16 23:52:00,
2013-01-16 18:02:00,44.0,32.0,-100.00,WNW,285,7.0,9.0,63,0.00,,,-99.99,,2013-01-17 00:02:00,
2013-01-16 18:12:00,43.0,32.0,-100.00,WNW,285,6.0,9.0,64,0.00,,,-99.99,,2013-01-17 00:12:00,
2013-01-16 18:22:00,42.0,32.0,-100.00,WNW,290,7.0,9.0,66,0.00,,,-99.99,,2013-01-17 00:22:00,
2013-01-16 18:32:00,42.0,32.0,-100.00,West,280,6.0,7.0,68,0.00,,,-99.99,,2013-01-17 00:32:00,
2013-01-16 18:42:00,42.0,32.0,-100.00,West,280,6.0,7.0,68,0.00,,,-99.99,,2013-01-17 00:42:00,
2013-01-16 18:52:00,41.0,32.0,-100.00,West,280,5.0,7.0,70,0.00,,,-99.99,,2013-01-17 00:52:00,
2013-01-16 19:02:00,41.0,32.0,-100.00,West,280,5.0,7.0,70,0.00,,,-99.99,,2013-01-17 01:02:00,
2013-01-16 19:12:00,41.0,33.0,-100.00,West,275,6.0,11.0,71,0.00,,,-99.99,,2013-01-17 01:12:00,
2013-01-16 19:22:00,42.0,33.0,-100.00,WNW,295,9.0,13.0,71,0.00,,,-99.99,,2013-01-17 01:22:00,
2013-01-16 19:32:00,42.0,33.0,-100.00,NW,310,7.0,12.0,72,0.00,,,-99.99,,2013-01-17 01:32:00,
2013-01-16 19:42:00,42.0,33.0,-100.00,NW,310,7.0,12.0,72,0.00,,,-99.99,,2013-01-17 01:42:00,
2013-01-16 19:52:00,41.0,33.0,-100.00,NW,310,7.0,11.0,72,0.00,,,-99.99,,2013-01-17 01:52:00,
2013-01-16 20:02:00,41.0,33.0,-100.00,NW,310,7.0,11.0,72,0.00,,,-99.99,,2013-01-17 02:02:00,
2013-01-16 20:12:00,41.0,33.0,-100.00,NW,320,7.0,12.0,72,0.00,,,-99.99,,2013-01-17 02:12:00,
2013-01-16 20:22:00,40.0,32.0,-100.00,NNW,330,7.0,11.0,73,0.00,,,-99.99,,2013-01-17 02:22:00,
2013-01-16 20:32:00,39.0,32.0,-100.00,NNW,330,12.0,19.0,75,0.00,,,-99.99,,2013-01-17 02:32:00,
2013-01-16 20:42:00,39.0,32.0,-100.00,NNW,330,12.0,19.0,75,0.00,,,-99.99,,2013-01-17 02:42:00,
2013-01-16 20:52:00,39.0,32.0,-100.00,NNW,330,12.0,19.0,75,0.00,,,-99.99,,2013-01-17 02:52:00,
2013-01-16 21:02:00,38.0,32.0,-100.00,NNW,335,11.0,19.0,78,0.00,,,-99.99,,2013-01-17 03:02:00,
2013-01-16 21:12:00,37.0,32.0,-100.00,NNW,340,17.0,23.0,81,0.00,,,-99.99,,2013-01-17 03:12:00,
2013-01-16 21:22:00,36.0,32.0,-100.00,North,350,12.0,19.0,84,0.00,,,-99.99,,2013-01-17 03:22:00,
2013-01-16 21:32:00,35.0,31.0,-100.00,NNW,330,9.0,16.0,88,0.00,,,-99.99,,2013-01-17 03:32:00,
2013-01-16 21:42:00,35.0,31.0,-100.00,NNW,330,9.0,16.0,88,0.00,,,-99.99,,2013-01-17 03:42:00,
2013-01-16 21:52:00,34.0,31.0,-100.00,NW,320,7.0,12.0,89,0.00,,,-99.99,,2013-01-17 03:52:00,
2013-01-16 22:02:00,34.0,31.0,-100.00,NW,320,7.0,12.0,89,0.00,,,-99.99,,2013-01-17 04:02:00,
2013-01-16 22:12:00,33.0,31.0,-100.00,NNW,345,9.0,16.0,89,0.00,,,-99.99,,2013-01-17 04:12:00,
2013-01-16 22:22:00,34.0,31.0,-100.00,North,350,14.0,22.0,89,0.00,,,-99.99,,2013-01-17 04:22:00,
2013-01-16 22:32:00,33.0,30.0,-100.00,NNW,345,9.0,21.0,89,0.00,,,-99.99,,2013-01-17 04:32:00,
2013-01-16 22:42:00,33.0,30.0,-100.00,NNW,345,9.0,21.0,89,0.00,,,-99.99,,2013-01-17 04:42:00,
2013-01-16 22:52:00,33.0,30.0,-100.00,NNW,345,13.0,18.0,89,0.00,,,-99.99,,2013-01-17 04:52:00,
2013-01-16 23:04:00,33.0,30.0,-100.00,NNW,345,13.0,18.0,89,0.00,,,-99.99,,2013-01-17 05:04:00,
2013-01-16 23:12:00,33.0,30.0,-100.00,NNW,345,12.0,22.0,89,0.00,,,-99.99,,2013-01-17 05:12:00,
2013-01-16 23:22:00,33.0,30.0,-100.00,NNW,335,10.0,16.0,89,0.00,,,-99.99,,2013-01-17 05:22:00,
2013-01-16 23:33:00,33.0,30.0,-100.00,NNW,335,10.0,16.0,89,0.00,,,-99.99,,2013-01-17 05:33:00,
2013-01-16 23:42:00,31.0,28.0,-100.00,NNW,340,12.0,23.0,87,0.00,,,-99.99,,2013-01-17 05:42:00,
2013-01-16 23:52:00,30.0,27.0,-100.00,NNW,345,9.0,16.0,87,0.00,,,-99.99,,2013-01-17 05:52:00,